Overview Statistics Trail Chart Weather Telemetry Raw packets
 

This is the latest recevied weather packets stored in our database for station/object N0QV. If no packets are shown the sender has not sent any weather packets the latest 10 day(s).

<< 34 35 36 37 38 39 40 >>
Time Temp. Humidity Pressure Rain* Wind** Luminosity Snow
1788437825 22.22° C 86% 1010 hPa 0 mm - 20 W/m² -
1788437521 22.22° C 87% 1010.1 hPa 0 mm - 13 W/m² -
1788437221 22.22° C 87% 1010.2 hPa 0 mm - 9 W/m² -
1788436915 22.22° C 87% 1010 hPa 0 mm - 6 W/m² -
1788436613 22.22° C 87% 1010.4 hPa 0 mm - 3 W/m² -
1788436309 22.22° C 87% 1010.3 hPa 0 mm - 0 W/m² -
1788436009 22.22° C 86% 1010.4 hPa 0 mm - 0 W/m² -
1788435704 22.22° C 88% 1010.5 hPa 0 mm - 0 W/m² -
1788435399 21.67° C 87% 1010.4 hPa 0 mm - 0 W/m² -
1788435096 21.67° C 90% 1010.3 hPa 0 mm - 0 W/m² -
1788434792 22.22° C 90% 1010.2 hPa 0 mm - 0 W/m² -
1788434491 21.67° C 90% 1009.6 hPa 0 mm - 0 W/m² -
1788434191 22.22° C 91% 1010.1 hPa 0 mm - 0 W/m² -
1788433887 22.22° C 90% 1009.9 hPa 0 mm - 0 W/m² -
1788433583 22.22° C 90% 1010 hPa 0 mm - 0 W/m² -
1788433278 22.22° C 89% 1010.3 hPa 0 mm - 0 W/m² -
1788432973 22.22° C 89% 1010.5 hPa 1.78 mm - 0 W/m² -
1788432668 22.22° C 89% 1010.6 hPa 3.05 mm - 0 W/m² -
1788432367 22.22° C 90% 1010.9 hPa 7.87 mm - 0 W/m² -
1788432063 22.22° C 91% 1011.2 hPa 10.67 mm - 0 W/m² -
1788431758 22.78° C 91% 1011.8 hPa 4.32 mm - 0 W/m² -
1788431455 22.78° C 91% 1011.8 hPa 0 mm - 0 W/m² -
1788431150 22.78° C 90% 1011.3 hPa 0 mm - 0 W/m² -
1788430849 22.78° C 89% 1011 hPa 0 mm - 0 W/m² -
1788430544 22.78° C 89% 1010.9 hPa 0 mm - 0 W/m² -

* Rain latest hour (hover to see other rain measurements)
** Current wind speed in m/s (hover to see current wind gust speed)